{"data":{"norad_id":63139,"epoch":"2026-05-25T01:26:08.602656Z","epoch_age_seconds":80315,"freshness":"FRESH","line1":"1 63139U 25043H   26145.05982179  .00195916  00000+0  14882-2 0  9990","line2":"2 63139  42.9976 150.3391 0001390 189.8989 170.1851 15.70942477 71487","mean_motion":15.70942477,"eccentricity":0.000139,"inclination_deg":42.9976,"raan_deg":150.3391,"arg_perigee_deg":189.8989,"mean_anomaly_deg":170.1851,"bstar":0.0014882,"rev_number":7148,"period_min":91.664718542078,"perigee_km":355.26610590005,"apogee_km":357.13825219183,"semimajor_km":6734.3391790459,"source":"CELESTRAK","updated_at":"2026-05-25T13:38:19.915162Z"}}